GFSSW_850_temp_021.txt.gz
Temp
8 8 8 8 8 8 9 9 10 10 10 11 11 12 13 14 16 16 17 20 19 20 19 19 20 21 20 19 20 22 18 18 21 23 25 28 28 29 30 30 30 30 30 29 29
7 7 8 8 8 8 8 8 9 9 9 10 11 11 12 12 14 16 20 20 20 19 19 20 19 19 19 20 21 21 17 19 22 24 25 27 28 28 29 29 29 29 29 29 29
7 7 7 7 7 7 7 7 8 8 8 9 10 10 11 10 13 17 18 19 20 19 19 19 19 19 20 21 21 22 20 22 23 25 26 26 27 28 29 27 29 28 29 29 29
7 7 7 7 7 7 7 7 7 7 7 8 8 9 10 9 12 16 17 17 18 18 17 17 18 18 18 20 22 21 23 23 24 24 25 25 27 27 28 28 29 29 29 29 29
6 7 7 7 8 8 8 8 7 7 7 7 8 8 8 7 10 15 15 16 16 17 16 17 17 18 16 20 22 21 22 23 24 25 25 26 26 27 27 28 29 29 29 29 29
6 6 7 7 7 8 8 8 8 8 8 7 7 7 5 4 12 15 14 14 16 16 16 16 16 17 18 19 20 22 23 24 24 25 25 26 26 27 27 28 28 28 28 28 28
6 7 7 7 7 8 8 8 9 9 9 8 7 6 3 5 13 14 14 15 15 16 17 17 18 18 19 18 20 21 21 23 24 25 24 26 25 26 27 28 28 28 28 28 28
6 6 6 7 7 8 8 9 10 9 9 8 7 5 4 13 12 12 14 14 15 15 15 16 17 17 18 20 20 19 20 19 22 24 25 25 24 26 27 28 27 27 28 28 28
6 6 6 7 7 7 8 9 11 10 9 8 7 6 6 12 12 14 13 12 14 14 15 16 17 17 17 16 17 19 18 19 21 24 24 24 24 26 27 27 27 27 27 27 28
6 6 7 7 8 8 8 9 10 10 9 8 6 7 8 13 14 14 14 14 14 14 15 16 17 15 15 15 15 17 18 20 20 23 24 24 24 25 26 26 27 27 27 27 28
6 6 8 8 8 8 8 9 9 10 8 9 10 9 12 13 13 14 15 15 15 15 13 15 13 14 15 16 17 19 20 20 21 23 23 23 23 24 26 26 26 27 27 27 28
7 7 8 8 8 8 8 8 9 9 9 9 9 10 11 11 12 13 14 14 15 13 14 13 13 15 17 18 18 18 18 19 22 23 23 23 23 25 26 25 26 27 27 27 28
7 7 7 8 8 8 8 9 9 9 8 9 10 10 11 11 12 13 13 14 14 13 14 13 14 17 17 17 18 18 18 19 19 21 22 22 21 22 24 25 26 27 28 28 27
6 7 7 8 7 8 8 8 8 8 5 9 11 12 13 12 12 13 14 15 14 13 14 13 16 17 17 17 18 17 20 20 21 20 19 21 19 22 23 24 25 26 27 27 28
7 7 7 6 7 7 7 8 8 8 4 9 10 11 13 14 14 14 15 15 14 14 14 13 15 15 16 17 19 18 20 20 20 20 19 20 19 22 22 22 22 23 26 27 28
7 7 7 7 7 7 7 7 7 6 6 8 12 14 14 14 14 14 15 15 16 15 15 14 16 16 16 18 19 20 19 19 19 19 17 20 20 21 21 22 23 23 26 28 28
7 8 7 7 7 7 7 8 6 5 11 11 12 13 12 11 12 14 14 14 12 12 12 14 15 16 17 16 17 18 16 15 15 16 17 20 20 21 21 23 24 24 25 26 28
8 8 8 7 7 7 7 6 5 8 9 11 12 12 11 10 9 10 11 12 14 14 13 12 11 14 17 16 15 16 17 15 14 16 18 21 19 21 24 24 25 27 27 24 23
8 7 8 7 8 7 7 4 5 7 6 10 12 10 10 11 7 9 9 9 12 10 10 9 12 15 14 15 17 16 15 18 17 18 18 19 21 23 24 24 23 24 26 22 22
7 7 9 8 8 8 6 6 8 7 7 9 8 10 9 10 9 9 7 10 11 12 12 11 9 13 14 15 15 16 18 16 17 15 15 19 21 21 23 24 24 23 21 21 21
7 7 9 9 8 7 4 7 10 10 9 9 5 8 8 9 9 8 10 11 10 9 10 10 9 10 12 12 13 15 16 16 17 17 17 17 19 23 24 24 23 21 22 21 21
5 7 9 9 7 7 5 9 9 10 10 10 10 9 9 9 9 9 7 7 8 10 9 8 7 8 10 13 14 13 13 16 15 17 18 17 19 23 24 23 22 22 22 21 21
3 7 10 9 5 5 8 9 9 10 7 10 9 10 8 7 7 9 7 10 8 10 9 7 6 7 10 13 14 13 16 18 17 16 18 18 20 24 23 24 23 22 22 21 21
4 6 10 9 8 7 7 7 8 9 10 10 9 9 8 7 8 8 6 10 9 7 8 7 6 7 7 10 10 9 10 12 12 16 18 19 21 22 23 23 22 23 22 21 21
6 7 7 5 5 6 7 7 7 8 9 8 8 8 8 6 7 8 9 10 10 8 7 6 6 7 8 10 10 9 10 10 10 14 18 20 21 23 22 21 22 22 22 21 21
5 5 5 4 6 7 8 6 6 6 6 7 7 8 5 4 6 7 8 8 8 8 7 5 6 7 8 10 10 10 11 11 11 12 16 21 22 22 22 24 22 23 22 22 21
4 4 3 5 6 6 6 7 7 7 6 8 8 7 5 7 7 7 9 9 9 9 8 8 6 6 8 10 10 9 11 12 13 13 15 20 22 21 20 20 18 22 23 22 21

GFSSW_850_temp_024.txt.gz
Temp
8 8 7 8 8 8 9 9 10 10 10 10 10 11 11 11 13 14 16 20 20 19 19 19 19 19 19 18 19 20 16 16 19 21 22 25 25 28 28 28 29 29 28 28 29
7 7 8 7 7 7 8 8 9 9 9 10 10 11 11 11 12 14 19 19 19 18 19 19 19 19 18 18 19 18 16 17 20 22 22 23 25 26 26 27 28 29 29 29 29
6 6 7 7 7 7 7 7 7 8 8 9 9 10 10 10 10 16 16 17 18 19 18 18 19 18 18 19 19 19 19 20 21 22 23 23 24 25 25 24 27 28 28 29 29
7 7 7 7 7 8 8 8 7 7 7 8 8 9 9 8 10 15 16 15 15 17 16 17 17 17 16 17 19 18 20 21 21 22 22 22 24 24 24 25 26 27 28 28 28
7 7 7 8 8 8 8 8 8 8 7 7 7 7 7 6 8 16 16 15 14 15 16 15 16 17 15 16 18 18 20 21 22 22 22 23 23 23 24 25 26 27 28 28 28
7 7 7 7 8 8 9 9 9 8 8 8 7 6 3 3 13 14 13 13 14 13 16 15 16 17 16 16 17 19 19 20 21 22 22 22 23 24 24 25 26 26 27 28 28
7 7 7 7 8 8 9 9 9 10 9 9 8 7 3 5 12 13 13 12 13 13 14 15 16 17 17 15 18 18 17 19 20 21 21 23 22 23 24 25 25 26 27 27 28
6 7 7 7 7 8 9 9 10 10 10 9 8 6 4 12 10 13 13 13 13 13 14 15 15 15 16 17 18 17 17 17 20 20 21 22 21 24 25 25 25 27 27 27 27
7 7 7 8 8 9 9 9 10 10 10 9 8 6 5 10 11 13 13 13 14 14 14 15 15 15 16 15 14 14 16 16 18 20 21 21 21 23 25 25 25 25 26 26 27
7 7 7 8 8 9 9 8 9 9 9 8 7 5 9 12 12 12 14 13 14 14 15 15 15 13 11 12 14 14 15 17 17 19 21 21 21 22 24 24 24 25 25 25 25
7 7 8 8 8 8 8 8 8 9 8 8 8 8 8 11 10 11 12 12 13 14 11 14 11 12 14 14 15 16 16 17 18 19 20 20 21 22 23 23 22 24 24 25 25
7 7 8 8 8 8 7 7 8 8 7 8 8 8 9 9 9 10 11 11 12 11 12 12 11 14 15 15 15 15 15 15 17 19 19 20 20 22 23 23 23 24 24 24 26
7 7 7 8 8 8 8 7 7 8 7 8 9 10 11 11 9 10 10 11 11 11 12 11 12 15 14 14 15 15 15 15 16 18 19 19 19 19 21 21 23 24 25 26 27
7 7 7 8 7 7 7 7 7 7 5 8 10 11 12 11 11 11 12 12 12 11 12 11 13 13 14 14 15 14 16 17 17 16 16 19 17 19 20 21 21 22 24 26 27
7 7 7 6 7 7 7 7 7 7 4 11 11 12 12 12 12 12 13 13 11 12 12 12 13 13 13 14 16 14 17 17 17 16 16 17 15 20 19 20 21 21 24 26 27
8 7 8 7 7 7 7 7 7 4 3 10 11 12 12 12 12 12 12 12 12 13 13 13 14 14 14 15 15 16 16 16 16 14 14 17 16 17 19 20 20 20 24 26 26
9 8 8 7 7 7 7 7 3 3 9 9 8 10 11 10 11 11 11 10 8 8 9 12 13 14 15 14 14 14 13 12 11 12 14 17 16 18 18 20 21 22 23 25 25
9 9 8 8 7 7 7 4 2 7 6 8 9 8 10 9 10 10 9 9 11 11 10 10 10 13 15 13 13 12 11 10 11 11 14 18 16 16 20 22 24 24 24 24 25
9 9 9 8 7 7 7 2 4 5 8 7 8 8 8 10 8 9 8 8 10 8 8 9 11 12 14 14 13 12 12 14 13 15 14 15 17 18 21 21 22 22 21 22 20
9 9 9 9 8 8 3 5 7 8 9 9 4 5 6 7 8 8 8 9 9 9 8 9 8 11 13 13 13 12 14 13 11 12 12 15 16 17 20 21 21 20 18 18 17
8 8 9 8 8 7 1 4 7 9 9 8 6 7 8 8 7 8 7 9 9 10 10 8 8 9 11 12 11 11 12 13 12 12 14 13 15 17 18 20 21 18 18 17 18
6 4 9 8 6 3 2 7 8 9 9 8 9 8 7 7 7 8 7 8 9 9 7 7 6 6 9 11 13 11 11 10 10 12 14 14 16 21 20 20 20 18 18 18 18
5 6 8 8 1 1 4 7 7 8 8 8 8 8 7 6 6 7 8 10 9 7 7 7 5 5 7 9 11 10 11 10 10 12 14 15 15 21 19 21 19 19 18 17 17
5 3 7 7 5 4 4 4 5 6 7 8 8 8 7 6 7 6 7 10 10 8 8 6 5 5 4 8 9 8 9 10 9 9 14 15 17 20 20 21 20 18 18 17 17
5 4 5 2 3 3 4 6 5 5 6 5 6 7 5 5 5 6 7 7 8 6 5 5 5 6 6 7 8 9 9 10 10 10 9 14 15 18 20 20 19 18 18 17 17
4 3 3 3 4 3 4 5 5 5 6 4 5 6 6 5 6 5 6 5 5 5 5 5 4 6 6 8 9 9 10 10 11 11 11 11 12 16 17 19 19 19 19 18 17
3 2 2 4 4 4 3 5 4 6 5 7 6 5 6 7 7 6 6 6 5 6 5 4 5 6 6 7 10 8 10 11 12 12 13 12 15 17 17 15 14 19 19 18 18

GFSSW_850_temp_030.txt.gz
Temp
8 8 8 8 8 8 9 9 9 9 9 9 9 9 10 11 12 13 15 16 15 16 16 16 16 17 17 17 18 18 14 14 17 19 21 23 21 25 25 26 25 27 27 27 28
7 7 8 8 8 8 8 8 9 9 9 8 8 9 9 10 11 14 14 15 15 15 16 16 16 16 16 17 17 16 13 15 18 20 21 22 21 22 23 23 24 26 26 27 27
7 7 7 7 8 8 8 9 9 9 9 9 9 8 9 9 10 12 12 12 12 12 13 15 15 15 15 16 17 15 16 18 19 21 22 21 21 23 21 21 25 24 25 25 26
7 7 7 7 8 8 8 9 9 8 8 9 9 9 9 9 10 13 13 13 13 13 13 14 14 14 13 14 16 15 16 19 19 20 21 20 21 21 21 21 23 23 24 24 24
7 7 7 8 8 9 9 9 8 8 8 9 8 8 9 9 11 11 11 12 13 12 13 12 12 14 12 13 16 15 16 17 19 19 20 20 19 20 20 21 23 23 23 23 23
7 8 8 8 9 9 9 9 9 9 9 9 9 7 5 3 11 11 11 11 11 11 12 12 12 13 14 14 16 16 17 17 18 18 18 19 19 19 20 21 22 22 22 23 23
8 8 8 8 9 9 9 9 9 9 9 9 9 8 6 9 10 10 10 10 10 10 10 12 13 12 14 14 16 16 15 15 15 17 17 19 18 19 20 20 21 21 22 23 23
8 8 8 8 9 9 9 9 9 9 8 9 8 7 8 11 11 11 11 11 11 10 10 12 12 11 11 14 15 15 14 15 17 15 18 19 18 21 22 22 21 22 22 23 24
8 8 8 9 9 10 9 10 9 9 9 9 7 7 9 11 11 12 12 11 11 11 10 11 11 12 13 11 11 12 15 12 15 17 18 18 19 19 22 22 21 22 22 22 23
8 9 9 9 9 9 9 10 10 9 8 8 7 5 11 10 11 11 11 11 12 11 11 10 11 10 9 10 11 12 11 14 14 16 17 16 18 19 20 20 20 21 22 22 23
8 8 9 9 9 9 8 8 7 8 7 7 8 7 9 11 11 11 11 10 11 11 9 11 9 9 11 12 13 12 13 13 14 16 16 16 17 18 18 19 19 20 21 21 21
8 8 9 9 9 8 7 7 6 5 5 9 10 9 11 10 9 11 11 10 10 9 9 8 8 11 12 12 12 11 12 11 13 14 15 14 14 15 16 16 18 19 19 20 21
8 8 9 9 9 8 7 6 6 6 5 7 10 10 11 10 11 11 10 10 9 9 9 7 9 11 12 12 12 11 11 12 12 14 15 14 15 15 16 16 18 19 19 20 20
8 9 9 9 8 8 7 6 6 6 2 7 10 10 10 10 10 11 11 10 10 9 9 8 9 10 11 11 11 10 13 13 14 13 12 15 12 15 16 16 16 17 19 20 21
8 8 9 9 9 8 7 6 6 6 4 8 9 9 8 9 9 11 11 10 9 10 10 9 11 11 10 11 12 11 13 12 12 12 12 13 11 16 17 15 16 17 19 20 21
9 9 9 9 9 8 7 7 7 4 3 7 8 8 8 8 9 11 10 10 10 8 8 9 11 11 10 12 12 13 12 11 12 10 9 12 12 14 15 17 16 16 18 20 21
9 10 10 9 8 8 8 7 4 3 7 7 6 8 7 7 8 9 9 8 7 6 6 8 9 11 12 11 12 11 9 7 7 8 10 13 12 15 15 15 16 16 18 21 22
9 9 9 9 8 8 8 4 2 6 6 7 8 7 6 7 7 7 7 6 9 6 7 6 8 10 11 10 10 9 8 7 9 9 11 14 11 13 15 16 18 18 20 21 22
9 9 9 8 8 8 7 2 3 5 7 7 7 6 5 7 7 6 6 7 8 6 6 7 7 10 9 11 11 10 8 10 10 11 10 10 12 14 17 16 16 17 20 21 22
9 9 8 8 8 7 3 5 5 6 7 7 5 5 4 5 5 5 6 8 8 8 7 8 7 9 10 10 11 11 11 10 7 10 10 10 12 13 15 16 17 16 15 19 19
9 8 7 7 7 7 1 3 5 7 7 6 5 4 5 6 6 5 6 8 8 8 7 6 6 8 9 9 9 10 9 10 8 8 10 10 11 12 15 16 15 14 17 16 16
7 4 7 8 5 0 0 4 6 6 7 6 6 6 5 6 5 5 6 8 9 7 6 6 5 5 7 9 9 9 9 9 8 10 9 8 10 13 15 14 13 14 15 14 13
4 5 7 7 -1 -1 2 4 5 6 6 5 5 6 5 5 4 5 6 8 8 7 6 6 4 5 7 8 7 7 9 9 7 7 7 9 11 14 14 13 14 13 15 13 14
4 1 5 5 3 2 3 5 3 6 5 5 5 5 4 3 4 4 5 7 7 7 8 6 3 4 4 7 6 6 7 7 7 6 9 10 11 14 15 12 14 15 15 13 13
4 1 2 -0 1 1 3 4 4 4 5 5 4 5 4 4 4 5 6 5 6 7 5 4 4 4 5 6 7 6 6 7 7 8 7 9 9 11 11 12 14 15 15 13 13
3 2 2 1 1 1 2 4 5 5 4 5 4 5 4 4 5 4 4 4 4 5 4 3 4 5 6 6 6 6 7 6 7 7 8 9 9 12 13 14 14 16 15 13 13
2 1 0 1 0 0 1 4 3 4 4 5 4 3 4 5 5 5 4 4 4 3 3 4 4 4 3 7 7 5 7 7 8 8 9 8 10 12 12 13 13 15 15 14 14

GFSSW_850_temp_033.txt.gz
Temp
7 8 7 8 8 8 9 9 9 9 9 9 9 10 11 11 13 14 14 14 14 15 15 16 16 16 16 16 17 18 20 20 21 21 23 22 24 24 24 25 25 26 27 27 27
8 8 8 8 8 9 9 9 9 9 9 9 9 10 10 11 12 13 11 11 11 12 14 15 16 15 15 16 17 19 20 21 22 22 22 24 23 24 24 24 25 25 25 25 26
7 8 8 8 8 9 9 9 9 9 9 9 10 10 10 10 11 11 12 12 11 11 13 13 15 14 15 16 17 18 19 21 21 21 22 23 23 23 23 24 25 25 23 23 25
7 8 8 8 9 9 9 9 9 9 9 9 10 10 10 10 13 11 11 10 11 11 12 12 13 14 16 17 17 18 19 20 21 20 21 22 23 23 23 23 23 22 22 23 22
8 8 8 9 9 9 9 9 8 9 9 9 9 9 10 9 11 10 10 11 11 11 11 11 12 14 16 17 17 18 20 19 19 20 20 20 21 22 22 22 22 21 22 22 22
8 8 9 9 9 9 9 9 8 8 9 9 9 9 8 9 11 10 11 11 11 11 10 11 11 12 13 15 17 19 19 19 19 19 19 20 21 21 21 21 21 21 22 22 22
8 9 9 10 10 10 9 9 9 9 9 9 9 9 8 11 11 11 11 11 11 11 11 12 12 11 12 15 15 16 17 18 18 19 19 19 19 21 20 20 20 21 21 22 23
8 9 9 10 10 10 10 10 10 10 10 9 9 9 10 11 11 11 11 11 11 11 11 12 11 10 11 13 15 16 17 17 19 18 19 19 19 23 23 22 22 22 22 22 22
8 8 9 9 10 10 10 10 10 10 9 9 9 8 11 11 11 11 11 11 11 11 11 11 10 11 12 13 14 16 17 17 18 20 19 19 20 23 22 22 23 22 22 22 22
8 8 9 9 9 10 10 10 10 9 9 9 9 8 11 10 11 11 11 11 10 10 11 10 11 13 13 14 14 15 15 17 18 19 19 19 20 22 22 21 21 22 21 22 22
8 9 9 9 9 9 10 10 9 8 9 8 8 7 10 10 11 11 11 10 9 10 12 11 12 12 13 14 15 15 15 16 17 19 19 19 19 21 21 21 21 21 21 21 21
8 9 9 9 9 9 8 7 6 6 6 9 9 8 10 9 8 11 10 10 10 11 11 11 11 12 12 13 13 14 14 14 15 16 16 18 18 19 19 20 20 20 20 20 20
8 9 9 9 9 8 7 7 6 6 6 7 10 9 10 9 9 11 10 10 10 10 11 11 12 13 12 13 13 13 13 14 14 16 17 16 17 18 19 19 19 19 19 19 20
9 9 9 9 9 8 7 6 6 6 7 9 10 9 9 9 9 10 10 10 11 10 11 11 13 12 12 12 13 12 14 14 14 15 15 17 16 19 19 19 19 19 19 19 19
9 10 9 9 9 8 7 6 6 6 9 10 10 9 9 9 9 11 11 10 10 11 11 11 11 12 12 13 13 13 14 14 14 14 14 15 15 17 20 19 20 20 20 19 19
9 9 10 9 9 8 7 7 6 8 8 8 9 9 9 9 10 10 10 10 10 10 11 11 12 12 12 13 13 14 14 14 14 14 13 15 15 18 19 20 21 21 21 20 20
9 9 9 9 8 8 7 7 8 8 8 8 8 9 9 8 9 10 10 10 9 7 9 10 10 12 12 12 13 13 12 12 11 12 13 16 15 17 19 19 20 20 20 20 20
9 9 9 8 8 8 7 8 7 7 7 9 8 9 8 9 9 9 9 9 9 7 6 7 7 10 12 12 12 12 12 13 11 13 14 15 14 17 19 20 19 19 19 19 20
9 8 8 8 8 7 7 7 7 7 8 8 8 7 7 8 8 8 8 8 9 8 6 6 9 11 11 12 13 12 12 14 12 13 15 15 16 18 18 19 20 20 20 20 19
9 8 8 7 7 7 8 6 7 7 8 8 6 7 6 8 7 8 8 9 9 9 9 8 6 10 9 11 12 12 14 12 13 12 13 15 16 18 18 20 19 20 19 18 17
8 7 7 7 7 7 6 6 6 7 7 7 7 6 6 6 7 7 8 9 9 9 9 9 8 10 10 10 6 9 10 13 13 14 14 15 17 17 18 17 17 19 18 17 15
7 8 7 7 7 1 5 5 5 7 7 7 7 7 7 7 6 7 7 8 9 9 8 8 7 8 9 11 11 10 10 11 12 13 14 14 15 17 16 17 17 18 17 17 13
2 4 6 7 5 5 5 5 5 6 7 6 6 7 7 6 5 6 7 9 8 8 8 8 7 8 10 10 10 10 11 10 10 11 12 13 15 17 17 18 16 17 18 17 13
3 5 5 5 3 4 4 5 6 6 6 6 5 6 5 4 6 5 6 8 8 8 8 7 7 8 8 9 9 9 10 10 9 11 12 13 14 16 16 16 16 16 17 17 15
4 3 1 5 4 3 3 4 5 6 5 5 5 5 4 4 5 5 7 7 7 7 7 7 6 8 8 8 8 8 9 9 10 10 10 13 13 14 15 14 16 16 16 17 16
3 2 2 1 1 3 4 5 5 5 5 5 5 6 5 4 4 4 6 5 4 5 5 5 5 7 6 8 9 8 9 10 10 10 10 11 11 13 13 13 16 16 17 18 17
2 1 0 2 2 3 4 5 4 4 4 5 5 4 4 6 6 5 5 5 4 4 4 4 5 6 7 8 8 8 10 10 11 11 11 10 12 13 13 14 16 16 15 16 16